Temperature
16 16 16 16 19 19 19 19 19 18 18 16 16 17 18 18 18 17 13 13 13 13 13 13 13 13 13 13 13 13 13 13 13 13 14 14 14 14 14 14 14 14 14 14 14 14 14 14 14
15 16 16 17 19 19 19 19 18 18 16 14 15 15 16 16 13 13 12 12 12 12 12 12 12 12 12 12 13 13 13 13 13 13 13 13 13 13 13 13 13 13 13 13 14 14 14 14 14
15 16 16 18 18 19 19 18 18 16 14 14 15 14 15 14 12 12 12 12 12 12 12 12 12 12 12 12 12 12 12 13 13 13 13 13 13 13 13 13 13 13 13 13 13 13 13 13 14
15 15 16 18 18 18 18 17 16 16 14 14 15 15 13 12 11 12 12 12 12 12 11 12 12 12 12 12 12 12 12 12 12 12 13 13 13 13 13 13 13 13 13 13 13 13 13 13 13
15 16 17 17 17 17 17 16 15 16 15 14 14 15 13 11 11 12 12 11 11 11 11 11 11 11 11 11 12 12 12 12 12 12 12 12 13 13 13 13 12 12 12 13 12 12 13 13 13
15 16 17 17 17 17 16 15 15 16 15 13 14 15 13 11 11 11 11 11 11 11 11 11 11 11 11 11 11 11 11 12 12 12 12 12 12 12 13 13 12 12 12 12 12 12 12 12 12
15 16 17 17 17 16 15 14 14 15 15 13 13 14 12 11 11 11 11 11 10 10 10 10 11 11 11 11 11 11 11 11 11 11 12 12 12 12 12 12 12 12 12 12 12 12 12 12 12
14 16 16 16 16 16 14 13 13 14 14 12 11 14 12 10 10 10 10 10 10 10 10 10 10 10 10 10 10 11 11 11 11 11 11 11 11 11 12 12 12 12 12 12 12 12 12 12 12
13 15 16 16 16 15 13 13 12 11 11 10 10 10 10 10 10 10 10 10 9 9 10 10 10 10 10 10 10 10 10 10 10 10 11 11 11 11 11 11 11 11 11 11 11 11 11 12 11
13 15 15 14 14 14 12 12 11 11 11 10 9 9 9 9 10 9 9 9 9 9 9 9 9 10 10 10 10 10 10 10 10 10 10 10 10 11 11 11 11 11 11 11 11 11 11 11 11
12 14 13 12 11 12 12 11 10 12 12 11 10 9 9 9 9 9 8 9 9 9 9 9 9 9 9 9 9 9 9 9 10 10 10 10 10 10 10 10 10 10 10 11 11 11 11 11 10
11 11 11 11 9 10 11 11 10 10 10 9 9 9 9 8 8 8 8 8 8 9 9 9 9 9 9 9 9 9 9 9 9 9 9 9 10 10 10 10 10 10 10 10 10 10 10 10 10
11 10 9 8 8 9 9 9 9 9 8 8 8 8 8 8 8 8 8 8 8 8 8 9 9 9 9 9 9 9 9 9 9 9 9 9 9 9 9 9 9 9 10 10 10 10 10 10 10
10 9 9 8 8 8 9 9 8 8 7 7 7 7 7 7 7 7 7 7 8 8 8 8 8 8 8 8 8 8 8 8 8 8 8 8 9 9 9 9 9 9 9 9 9 9 9 9 9
8 9 9 9 8 8 8 9 9 8 7 7 7 6 7 7 7 7 7 7 7 7 7 8 8 8 8 8 8 8 8 8 8 8 8 8 8 8 8 8 8 8 9 9 9 9 9 9 9
9 10 11 9 8 8 9 11 9 6 6 6 6 6 5 6 6 6 6 6 7 7 7 7 7 7 7 7 8 7 7 7 7 7 7 7 7 8 8 8 8 8 8 8 8 8 8 8 8
10 11 11 10 8 8 9 10 9 6 6 6 6 5 5 5 5 5 6 6 6 6 7 7 7 7 7 7 7 7 7 7 7 7 7 7 7 7 7 7 7 7 8 8 8 8 8 8 8
11 11 10 10 8 8 8 9 8 6 5 6 5 5 4 4 4 5 5 5 6 6 6 6 6 6 6 6 6 6 6 6 6 6 6 6 7 7 6 6 7 7 7 7 7 7 7 7 7
9 10 10 9 7 7 8 8 8 6 5 5 5 4 4 4 4 4 4 5 5 5 5 6 6 6 6 6 6 6 6 6 6 6 6 6 6 6 6 6 6 6 6 6 6 6 6 7 7
8 9 9 8 6 7 7 7 7 6 5 5 4 4 4 3 3 3 4 4 4 5 5 5 5 5 5 5 5 5 5 5 5 5 5 5 5 6 6 5 6 6 6 6 6 6 6 6 6
8 8 8 8 6 5 6 8 7 6 4 4 3 3 3 3 3 3 3 4 4 4 4 5 5 5 5 5 5 5 4 4 5 5 5 5 5 5 5 5 5 5 5 5 5 5 5 5 5
8 6 6 6 7 8 6 9 9 6 5 4 4 3 3 2 2 2 3 3 3 4 4 4 4 4 4 4 4 4 4 4 4 4 4 4 4 4 4 4 4 4 4 4 4 5 5 5 5
6 5 5 5 6 6 6 6 9 5 5 5 4 3 2 2 2 2 2 3 3 3 3 3 3 3 4 3 3 3 3 3 3 3 4 4 4 4 4 4 4 4 4 4 4 4 4 4 4
4 5 4 5 5 6 6 6 9 7 6 6 4 3 2 2 1 1 2 2 2 2 3 3 3 3 3 3 3 3 3 3 3 3 3 3 3 3 3 3 3 3 3 3 3 3 3 4 3
5 6 7 7 7 8 5 5 7 6 5 4 3 2 2 1 1 1 1 1 1 2 2 2 2 2 2 2 2 2 2 2 2 2 2 2 3 3 2 2 3 2 3 3 3 3 3 3 3
4 5 7 8 8 8 4 5 7 4 3 2 2 1 1 0 1 1 1 1 1 1 1 1 1 2 2 2 2 2 1 1 2 2 2 2 2 2 2 2 2 2 2 2 2 2 2 2 2
4 5 4 5 4 5 7 6 5 4 3 2 1 1 0 -0 0 0 0 0 0 1 1 1 1 1 1 1 1 1 1 1 1 1 1 1 1 1 1 2 2 2 2 1 1 2 2 2 2
3 3 4 4 5 7 7 6 7 4 4 3 2 1 0 -0 -0 0 -0 -0 -0 0 0 0 0 0 1 1 1 1 1 1 1 1 1 1 1 1 1 1 1 1 1 1 1 1 1 1 1
2 2 3 4 4 6 7 7 5 4 3 2 1 0 -0 -0 -1 -1 -0 -1 -1 -1 -0 -0 -0 -0 0 0 0 0 0 0 0 0 0 0 0 0 0 0 0 1 1 1 1 1 1 1 1
1 2 2 4 3 3 5 6 2 1 1 0 -0 -1 -1 -1 -1 -1 -1 -1 -1 -1 -1 -1 -1 -1 -1 -0 -0 -0 -0 -0 -0 -0 -0 -0 -0 -0 -0 -0 -0 -0 0 0 0 0 0 0 0
Wind_Speed
2 0 1 2 3 3 5 4 3 4 3 1 2 2 2 1 1 1 3 3 2 4 5 6 6 8 9 9 10 10 9 9 9 9 8 9 8 8 9 9 10 10 11 11 11 12 13 13 14
1 0 1 2 5 7 6 5 5 4 2 3 2 2 2 1 2 2 2 2 2 4 5 6 7 8 9 9 9 10 10 9 9 9 8 8 9 9 9 9 9 10 10 10 11 11 12 13 13
1 0 1 2 5 7 6 4 4 3 3 2 2 1 1 1 2 2 2 2 3 4 5 6 7 8 8 9 9 10 10 9 9 9 8 8 9 9 9 9 9 10 10 10 10 11 11 12 12
2 2 1 4 7 6 4 2 3 4 3 2 2 2 2 2 2 2 2 2 4 4 4 6 7 7 8 8 9 10 10 9 9 8 8 8 8 9 9 9 9 9 9 10 10 10 11 11 11
1 2 4 6 9 6 4 3 3 4 3 2 2 2 2 2 3 2 2 3 3 3 3 5 6 7 7 8 9 9 9 9 8 8 7 8 8 8 8 8 9 8 8 9 9 10 10 10 10
3 3 6 10 10 6 5 4 5 4 3 2 3 3 2 2 3 2 2 2 3 3 4 5 6 6 7 7 8 9 9 8 8 8 7 7 7 7 7 8 8 8 7 8 8 9 10 10 10
4 4 7 9 9 8 6 5 5 5 5 4 3 3 2 1 2 1 2 3 3 3 4 4 5 6 6 7 8 8 8 8 8 8 7 7 7 7 7 7 7 7 7 7 7 9 9 9 9
2 3 7 9 9 8 5 4 3 5 4 1 2 3 1 0 1 2 3 3 3 3 3 3 3 4 5 6 7 7 7 8 8 8 7 8 7 7 7 6 7 7 7 7 7 8 9 9 9
3 5 9 9 8 6 5 5 3 1 2 2 0 2 3 3 3 3 3 2 2 2 2 2 2 3 4 5 6 6 7 8 8 7 7 7 5 5 5 6 6 6 7 7 7 7 8 8 8
4 8 9 4 4 4 5 5 4 3 4 3 1 2 3 3 3 4 3 3 3 2 1 1 1 2 3 3 4 4 4 5 5 5 5 4 4 4 4 6 6 6 7 7 7 7 6 5 5
3 7 5 4 2 3 5 4 3 5 5 5 4 2 2 3 3 3 3 3 3 3 1 0 1 1 2 2 3 3 3 4 4 4 5 4 4 3 3 4 4 4 5 5 4 4 4 4 4
3 3 3 2 1 3 4 5 4 5 4 2 3 4 5 5 4 4 3 3 2 2 2 1 0 1 1 2 2 3 3 3 3 3 4 4 3 2 2 2 2 2 2 2 3 3 3 4 4
5 3 2 1 1 1 2 4 4 5 4 2 1 4 5 5 4 3 2 2 2 2 3 2 1 1 1 1 2 2 3 3 4 4 4 4 3 3 2 2 2 2 2 2 2 2 3 3 4
3 3 2 2 2 2 3 4 4 5 3 2 2 4 4 4 3 2 2 2 2 2 3 2 2 2 1 2 2 2 2 3 3 3 4 4 3 3 2 2 1 1 1 1 2 2 2 3 3
3 3 4 3 3 3 4 6 7 4 3 3 3 3 3 3 2 2 2 2 2 3 2 2 2 2 1 2 2 2 2 2 2 3 4 4 4 3 3 2 2 1 2 2 2 2 2 2 3
4 5 6 4 4 3 6 9 5 3 4 4 4 4 3 2 2 2 2 2 2 2 2 1 1 1 1 1 2 2 2 3 2 2 3 4 4 4 3 3 2 2 2 2 2 2 2 2 2
4 6 7 5 4 3 7 9 3 3 5 6 5 4 3 2 2 2 2 2 2 2 1 1 0 0 0 1 1 2 2 2 2 2 2 2 3 3 3 2 2 3 3 2 2 2 2 2 2
6 7 7 7 3 5 8 10 5 4 5 5 5 4 4 3 3 3 2 2 1 1 1 1 0 0 1 1 1 1 2 1 2 2 1 2 2 3 2 2 3 3 3 2 2 2 2 2 2
5 7 8 6 2 5 10 12 9 6 6 6 5 4 4 4 3 2 2 1 0 0 0 1 1 1 1 1 1 2 1 1 1 1 1 2 2 3 3 2 3 3 3 3 3 3 3 2 2
6 7 8 5 2 5 8 11 9 8 6 6 6 5 5 4 3 2 1 1 1 1 1 1 1 1 1 1 1 1 1 1 1 1 1 1 2 3 3 3 3 3 3 3 4 4 3 2 2
7 7 7 5 3 3 6 8 7 4 5 4 5 5 4 4 4 3 2 2 2 1 1 1 1 1 1 0 1 1 1 1 1 1 1 0 1 2 3 3 3 3 4 4 5 5 4 4 2
8 5 5 5 5 4 3 6 6 4 4 5 5 4 4 4 4 3 3 3 2 2 2 2 1 1 1 1 1 2 1 1 2 2 1 1 1 1 2 3 3 3 3 3 4 4 4 4 3
3 2 4 5 6 6 5 6 6 3 5 6 5 4 4 3 4 3 3 3 2 2 2 2 2 1 1 1 1 2 1 1 1 1 1 1 1 0 1 1 2 3 2 3 3 3 3 4 4
3 2 2 3 4 7 7 8 7 5 6 4 4 4 4 3 3 3 2 2 2 2 1 1 2 1 1 1 1 1 2 1 2 1 1 1 1 1 1 1 2 2 2 3 3 3 4 3 4
3 3 3 4 5 6 5 7 7 4 5 5 4 4 3 2 2 2 2 2 2 2 2 2 2 1 1 1 1 1 2 2 2 2 2 1 1 1 1 1 1 2 2 2 3 3 3 4 4
4 5 4 5 6 5 5 9 5 2 3 3 3 3 2 2 2 2 2 2 2 2 2 2 2 1 1 1 1 1 1 1 1 2 2 2 1 1 1 1 1 2 2 2 2 3 3 3 4
4 4 2 2 2 6 7 6 5 4 4 3 3 2 2 2 2 2 2 2 2 2 2 2 2 2 1 1 1 1 1 1 1 1 2 1 1 1 1 2 1 2 2 2 2 2 3 3 4
2 3 4 4 4 7 6 7 5 5 5 3 2 3 3 2 2 2 2 2 2 2 2 2 2 2 2 1 1 1 1 1 1 1 1 1 1 1 1 2 2 2 2 3 2 2 3 3 3
4 4 4 4 4 5 6 5 1 4 3 3 3 3 3 3 3 3 3 3 2 2 2 2 2 2 2 1 1 1 1 1 1 1 1 1 1 1 2 2 2 2 3 3 3 3 3 4 3
3 5 6 5 5 5 5 5 2 1 1 2 3 3 3 3 3 3 3 2 2 2 2 2 2 2 2 2 2 2 1 1 1 1 1 1 1 2 2 3 3 3 3 3 4 4 4 4 5
Wind_Direction
349 315 221 212 206 210 219 201 201 182 183 182 168 198 198 208 281 49 69 104 111 142 149 153 142 131 124 119 115 110 103 97 95 93 90 89 89 90 88 88 88 86 85 83 86 89 88 87 86
334 246 206 215 227 216 209 206 204 188 137 132 155 192 189 164 33 58 100 96 132 141 148 154 139 134 129 122 119 114 107 101 98 94 92 91 89 88 86 86 87 87 86 85 85 90 91 89 87
175 342 202 200 224 227 209 195 203 180 156 181 162 167 248 103 88 81 60 134 146 139 143 144 142 136 131 125 122 118 112 106 100 96 94 92 89 88 88 85 87 87 86 86 86 90 94 92 89
200 164 185 218 219 227 231 193 176 166 172 204 202 159 132 61 36 25 69 139 142 136 141 140 144 141 134 129 125 121 115 111 106 103 99 94 90 89 90 87 86 87 86 89 88 90 93 93 92
207 190 201 219 227 225 234 234 198 193 183 179 203 196 155 87 31 54 98 134 139 131 133 138 139 143 137 134 130 124 120 118 113 108 105 98 92 91 90 91 87 85 86 89 95 93 93 94 93
181 197 217 226 223 220 222 213 207 214 207 202 215 211 152 96 50 59 101 130 130 125 121 127 126 129 134 134 131 127 125 123 119 114 111 105 99 96 94 94 92 89 86 91 101 97 97 96 94
203 200 225 229 227 223 214 201 216 216 214 215 230 217 180 131 35 64 116 125 115 111 114 115 131 132 129 129 128 128 126 125 122 118 116 111 105 103 99 98 97 96 92 90 103 102 100 98 95
213 200 224 228 229 227 200 197 225 231 223 207 222 230 202 87 59 118 119 118 109 98 94 92 104 130 132 130 125 126 127 126 122 117 113 110 108 105 102 102 100 101 98 92 98 106 103 101 95
210 215 226 224 223 214 191 197 197 234 186 158 135 3 23 111 125 126 131 134 125 104 94 89 100 110 123 132 129 127 129 126 124 119 115 119 125 119 111 100 101 100 99 94 96 104 105 107 99
201 220 229 228 227 201 189 206 195 186 203 215 250 8 68 125 144 153 165 172 175 172 144 104 119 120 116 125 141 143 143 143 144 141 139 134 128 116 108 102 100 100 98 96 95 108 116 119 115
199 225 223 219 214 206 193 190 190 212 225 234 243 220 159 164 172 183 194 196 200 199 188 163 144 149 132 122 144 143 145 150 152 149 145 141 128 120 116 113 110 108 105 101 102 113 125 122 115
189 225 221 214 215 213 211 200 202 223 245 274 238 178 173 181 190 196 203 214 222 220 215 232 239 184 162 148 148 154 156 154 150 154 153 152 134 128 126 120 124 123 120 117 117 112 124 126 124
211 212 212 191 160 177 186 208 224 237 260 280 183 167 178 194 201 208 201 212 231 241 236 233 234 209 186 161 146 148 167 166 162 160 164 161 151 150 143 127 131 138 128 130 132 129 132 129 125
191 193 204 229 216 214 215 231 237 248 240 201 184 188 195 205 212 214 213 226 245 249 252 254 246 231 197 175 158 154 160 170 169 163 168 167 162 154 150 140 137 136 133 144 155 145 145 135 124
176 195 219 222 220 219 224 243 236 239 208 209 214 213 213 213 201 218 228 228 238 251 253 245 246 243 209 182 168 159 159 162 165 167 172 171 173 170 164 155 151 146 139 146 144 141 136 129 123
189 213 230 214 219 220 222 244 224 214 211 229 233 230 225 225 235 254 256 249 241 245 245 240 245 248 230 186 172 162 156 159 152 153 165 174 177 177 176 165 159 159 153 150 148 152 151 145 141
202 226 234 220 207 219 225 250 227 217 223 238 239 237 238 254 274 279 280 269 249 235 233 219 231 224 293 188 165 153 143 143 148 148 148 158 172 181 183 176 160 164 157 152 151 158 167 157 151
217 229 238 236 201 218 234 248 251 228 230 240 244 243 246 255 268 276 277 275 267 243 213 162 116 82 73 91 141 146 148 136 130 130 160 168 168 170 173 175 168 172 163 157 160 160 157 166 163
228 233 245 244 215 232 243 253 256 242 236 242 244 247 254 263 278 280 273 265 236 166 172 175 148 131 127 149 192 193 203 190 173 149 158 177 175 169 169 166 180 177 178 175 169 162 160 157 164
224 239 248 246 242 249 261 261 256 241 233 235 240 246 255 268 275 276 277 266 242 217 218 215 192 187 187 219 226 240 199 201 176 140 138 158 180 180 180 181 183 182 182 178 175 171 177 181 193
233 243 249 255 269 241 274 256 226 225 227 243 250 252 256 256 258 257 253 247 247 241 237 234 224 210 211 230 146 85 120 165 189 210 199 224 200 194 190 192 187 183 189 189 188 190 192 193 207
239 238 247 239 245 254 253 269 231 227 240 248 254 253 256 260 255 252 243 237 237 247 244 236 224 212 206 181 178 168 192 215 227 220 210 196 189 189 195 199 193 183 189 192 196 203 210 198 200
230 221 230 237 237 254 229 248 250 206 249 251 245 247 260 262 256 252 244 234 229 231 232 232 225 206 195 189 203 204 217 226 177 170 185 191 178 160 171 194 185 184 191 195 194 200 210 208 210
182 173 184 209 226 243 224 230 254 216 231 243 235 243 261 267 264 261 258 235 220 214 213 214 219 209 180 187 204 210 211 192 155 138 183 200 201 194 190 212 195 192 193 199 202 198 206 212 218
206 210 236 227 225 239 199 233 250 230 228 239 249 258 272 270 264 262 256 239 227 220 211 211 214 219 196 207 231 234 230 207 191 188 198 203 215 229 234 242 231 218 212 214 209 197 208 213 217
211 220 226 243 249 254 213 235 241 228 250 257 253 261 270 279 264 257 258 246 225 220 214 219 221 231 241 232 236 233 227 219 216 216 215 211 229 228 241 257 249 241 228 223 219 210 213 216 222
194 212 242 234 265 261 239 246 264 225 242 253 255 259 258 275 273 271 277 269 250 232 225 227 226 236 252 255 253 242 237 238 223 212 212 218 238 242 235 247 261 256 228 216 216 226 228 225 228
260 175 180 207 237 253 249 239 233 207 215 227 249 259 267 281 286 287 289 285 269 259 246 236 233 230 239 248 251 260 254 245 230 212 209 216 227 238 236 245 248 253 242 227 222 227 231 234 239
181 193 209 207 236 245 260 248 212 202 205 228 256 274 273 273 277 282 290 289 282 270 256 248 244 246 250 246 245 250 254 248 232 229 230 224 225 226 234 243 246 245 246 235 235 234 231 232 241
244 220 201 217 220 224 255 265 93 210 284 280 278 290 289 286 288 287 288 292 290 281 267 261 259 258 259 254 245 246 253 246 238 244 247 243 241 238 241 243 244 244 245 242 240 241 240 237 238
Height
1522 1523 1524 1526 1526 1523 1523 1525 1525 1527 1529 1531 1532 1532 1531 1531 1532 1538 1537 1535 1536 1538 1539 1540 1541 1542 1543 1544 1544 1545 1545 1545 1546 1546 1546 1547 1547 1548 1548 1548 1548 1548 1549 1549 1549 1549 1549 1549 1549
1522 1523 1526 1526 1521 1521 1523 1523 1526 1527 1530 1532 1533 1533 1532 1533 1535 1535 1534 1535 1536 1537 1539 1540 1541 1542 1543 1544 1545 1545 1545 1545 1546 1546 1547 1547 1547 1548 1548 1549 1549 1549 1549 1549 1550 1550 1550 1550 1550
1522 1523 1526 1523 1520 1518 1520 1523 1525 1530 1532 1532 1533 1533 1533 1534 1535 1534 1534 1535 1536 1538 1539 1540 1541 1542 1543 1544 1545 1545 1545 1545 1546 1546 1547 1547 1548 1548 1549 1549 1549 1549 1550 1550 1550 1550 1550 1550 1550
1522 1524 1525 1523 1521 1521 1522 1525 1528 1530 1532 1532 1532 1533 1534 1534 1534 1534 1534 1535 1537 1538 1539 1540 1541 1542 1543 1544 1544 1545 1545 1545 1546 1546 1547 1547 1548 1548 1548 1549 1549 1550 1550 1550 1551 1551 1551 1551 1551
1522 1523 1522 1522 1520 1522 1525 1527 1529 1528 1530 1532 1532 1532 1534 1534 1533 1533 1534 1535 1536 1538 1539 1540 1540 1542 1543 1543 1544 1544 1545 1545 1546 1546 1547 1547 1548 1548 1548 1549 1549 1550 1550 1550 1551 1551 1551 1551 1551
1522 1521 1519 1517 1517 1522 1525 1528 1529 1528 1530 1532 1533 1532 1533 1533 1532 1533 1534 1535 1536 1537 1539 1539 1540 1541 1542 1543 1543 1544 1544 1545 1545 1546 1546 1547 1547 1548 1548 1548 1549 1549 1550 1550 1551 1551 1551 1551 1551
1521 1519 1517 1516 1517 1520 1525 1528 1528 1528 1529 1531 1532 1532 1532 1532 1532 1532 1534 1535 1536 1537 1538 1539 1540 1541 1541 1542 1542 1543 1543 1544 1545 1545 1546 1546 1547 1547 1548 1548 1548 1549 1549 1550 1550 1551 1551 1551 1551
1519 1520 1518 1516 1516 1519 1525 1527 1528 1529 1529 1531 1532 1531 1531 1532 1531 1532 1533 1534 1535 1536 1537 1538 1539 1540 1540 1541 1541 1542 1543 1543 1544 1545 1545 1546 1546 1547 1547 1547 1548 1548 1549 1549 1550 1550 1550 1551 1551
1519 1520 1514 1514 1516 1520 1525 1526 1528 1528 1529 1530 1530 1531 1531 1530 1530 1531 1532 1533 1534 1535 1536 1537 1537 1538 1539 1540 1540 1541 1542 1542 1543 1544 1544 1545 1546 1546 1546 1546 1547 1548 1548 1548 1549 1549 1550 1550 1551
1518 1515 1513 1518 1520 1521 1524 1525 1527 1527 1528 1529 1529 1529 1529 1529 1529 1530 1530 1531 1532 1533 1534 1535 1535 1536 1537 1538 1539 1540 1540 1541 1542 1542 1543 1544 1544 1545 1545 1545 1546 1547 1547 1547 1548 1548 1549 1550 1550
1517 1515 1518 1521 1522 1523 1524 1525 1526 1526 1525 1527 1528 1527 1527 1527 1528 1528 1529 1530 1530 1531 1532 1533 1534 1535 1535 1536 1537 1538 1538 1539 1540 1541 1541 1542 1543 1543 1544 1544 1545 1545 1546 1546 1547 1547 1548 1548 1549
1518 1519 1520 1522 1523 1523 1523 1524 1525 1525 1525 1526 1526 1526 1526 1525 1526 1526 1527 1528 1528 1529 1530 1531 1532 1533 1533 1534 1535 1536 1536 1537 1538 1539 1539 1540 1541 1541 1542 1543 1543 1544 1544 1545 1545 1546 1547 1548 1548
1518 1520 1521 1522 1523 1523 1523 1524 1524 1524 1524 1524 1524 1524 1524 1524 1524 1525 1525 1526 1526 1527 1528 1529 1529 1530 1531 1532 1533 1534 1534 1535 1536 1537 1538 1538 1539 1539 1540 1541 1541 1542 1543 1543 1544 1544 1545 1546 1547
1518 1520 1521 1522 1522 1523 1523 1523 1524 1522 1522 1522 1522 1522 1522 1522 1522 1522 1522 1523 1524 1524 1525 1526 1527 1528 1529 1530 1530 1531 1532 1533 1534 1535 1535 1536 1537 1537 1538 1538 1539 1540 1540 1541 1542 1542 1543 1544 1545
1519 1520 1520 1521 1521 1522 1523 1520 1520 1520 1520 1520 1520 1520 1520 1520 1520 1520 1520 1520 1521 1522 1523 1523 1524 1525 1526 1527 1528 1529 1530 1530 1531 1532 1533 1533 1534 1535 1535 1536 1537 1537 1538 1539 1540 1540 1541 1542 1543
1518 1516 1514 1517 1520 1521 1522 1513 1517 1518 1519 1519 1519 1518 1518 1518 1518 1518 1518 1518 1519 1519 1520 1520 1521 1522 1523 1524 1525 1526 1527 1527 1528 1529 1530 1530 1531 1532 1533 1533 1534 1535 1536 1536 1537 1538 1539 1540 1541
1513 1509 1508 1513 1518 1519 1518 1511 1515 1516 1517 1516 1517 1516 1516 1516 1515 1515 1515 1516 1516 1517 1517 1518 1519 1519 1520 1521 1522 1523 1524 1524 1525 1526 1527 1527 1528 1529 1530 1530 1531 1532 1533 1534 1535 1535 1536 1538 1539
1507 1506 1507 1509 1515 1517 1514 1510 1513 1514 1514 1514 1514 1514 1514 1513 1513 1513 1513 1513 1514 1514 1515 1515 1516 1517 1518 1519 1519 1520 1521 1522 1522 1523 1524 1524 1525 1525 1526 1527 1528 1529 1530 1530 1532 1533 1534 1535 1536
1508 1507 1506 1508 1515 1515 1511 1508 1509 1511 1512 1512 1512 1512 1512 1511 1512 1511 1511 1511 1511 1512 1512 1513 1514 1514 1515 1516 1516 1517 1517 1518 1519 1520 1520 1521 1522 1522 1523 1524 1525 1526 1527 1528 1529 1530 1531 1532 1534
1510 1508 1506 1511 1516 1514 1510 1506 1506 1508 1508 1509 1509 1509 1509 1509 1509 1508 1508 1508 1508 1509 1509 1510 1511 1512 1513 1513 1514 1515 1515 1515 1516 1517 1517 1517 1518 1519 1520 1521 1521 1522 1523 1525 1526 1527 1528 1529 1531
1510 1509 1508 1511 1515 1516 1512 1499 1501 1504 1506 1507 1506 1506 1506 1506 1505 1505 1505 1505 1506 1506 1507 1507 1508 1509 1510 1511 1511 1512 1512 1513 1513 1513 1514 1514 1515 1516 1517 1518 1519 1520 1521 1522 1523 1524 1525 1526 1527
1507 1512 1513 1514 1511 1505 1511 1494 1491 1499 1502 1502 1503 1503 1503 1503 1503 1502 1502 1502 1503 1503 1504 1505 1506 1506 1507 1508 1508 1508 1509 1508 1509 1510 1511 1512 1513 1513 1514 1515 1516 1517 1518 1519 1520 1521 1523 1524 1524
1509 1513 1514 1513 1511 1509 1509 1505 1485 1497 1497 1497 1498 1499 1500 1500 1500 1499 1499 1500 1500 1501 1502 1502 1503 1504 1504 1505 1505 1506 1506 1507 1507 1508 1508 1509 1509 1510 1511 1511 1512 1513 1514 1516 1517 1518 1519 1520 1521
1513 1514 1514 1513 1510 1504 1503 1501 1482 1489 1492 1493 1495 1496 1497 1497 1497 1497 1497 1497 1498 1498 1499 1499 1500 1501 1501 1502 1503 1503 1504 1504 1504 1504 1505 1506 1506 1507 1508 1508 1509 1510 1511 1512 1513 1514 1515 1517 1518
1512 1508 1502 1499 1498 1489 1505 1502 1487 1488 1492 1492 1494 1494 1494 1494 1494 1494 1494 1495 1495 1495 1496 1496 1497 1498 1499 1499 1500 1500 1501 1501 1501 1502 1502 1503 1503 1504 1505 1505 1506 1507 1508 1509 1510 1510 1512 1513 1514
1509 1506 1499 1493 1486 1483 1502 1493 1485 1490 1492 1492 1493 1493 1493 1493 1492 1492 1492 1492 1492 1493 1493 1494 1495 1495 1496 1496 1497 1498 1498 1498 1499 1499 1500 1500 1501 1501 1502 1502 1503 1504 1504 1505 1506 1507 1508 1509 1510
1508 1506 1508 1505 1509 1500 1483 1487 1489 1489 1490 1490 1491 1491 1491 1491 1491 1491 1491 1490 1490 1490 1491 1491 1492 1492 1493 1494 1494 1495 1495 1496 1496 1497 1497 1497 1498 1498 1499 1500 1500 1501 1501 1502 1503 1504 1504 1505 1506
1511 1509 1509 1505 1497 1485 1478 1481 1477 1484 1486 1488 1489 1490 1489 1490 1489 1489 1489 1488 1488 1488 1488 1489 1489 1489 1490 1491 1491 1492 1493 1493 1493 1494 1494 1494 1495 1495 1496 1496 1497 1498 1498 1499 1500 1500 1501 1501 1502
1512 1512 1507 1503 1501 1489 1478 1474 1482 1483 1485 1486 1488 1488 1488 1488 1488 1487 1487 1486 1486 1486 1486 1486 1486 1486 1487 1487 1488 1489 1489 1490 1490 1490 1491 1491 1491 1492 1492 1493 1493 1494 1495 1495 1496 1496 1497 1498 1498
1511 1507 1506 1500 1500 1500 1487 1480 1487 1487 1487 1488 1488 1487 1487 1487 1486 1485 1485 1484 1483 1483 1483 1483 1483 1483 1484 1484 1485 1485 1486 1486 1487 1487 1487 1488 1488 1489 1489 1489 1490 1490 1491 1491 1492 1492 1493 1493 1494